"Pseudo-MPEC" for P12oDgI

Created 2026 Jul 28 21:35:07 UT using Find_Orb

Click here for an explanation of pseudo-MPECs

 
 Astrometry: 
     P12oDgI*0C2026 07 24.58498423 16 56.022+00 59 17.66   ~7OHZ 21.96wXNEOCPF51
     P12oDgI 0C2026 07 24.59704523 16 55.839+00 59 24.80   ~7OHZ 21.84wXNEOCPF51
     P12oDgI 0C2026 07 24.60870823 16 55.662+00 59 31.55   ~7OHZ 21.60wXNEOCPF51
     P12oDgI 0C2026 07 26.49402323 16 27.189+01 17 50.86   ~7QHZ 22.12wXNEOCPF52
     P12oDgI 0C2026 07 26.50349123 16 27.006+01 17 56.37   ~7QHZ 22.00wXNEOCPF52
     P12oDgI 0C2026 07 26.52283323 16 26.637+01 18 07.08   ~7QHZ 21.74wXNEOCPF52

Station data:
(F51) Pan-STARRS 1, Haleakala  (N20.707234 W156.255910)  US/Hawaii.
   Observers J. Herman, T. Lowe, P. Minguez, A. Schultz, I. Smith. Measurers
   K. Chambers, T. de Boer, J. Fairlamb, H. Gao, M. Huber, C.-C. Lin, E.
   Magnier, Y. Ramanjooloo, R. Wainscoat, R. Weryk. 1.8-m Ritchey-Chrétien +
   CCD.
(F52) Pan-STARRS 2, Haleakala  (N20.707382 W156.255910)  US/Hawaii.
   Observers J. Herman, T. Lowe, P. Minguez, A. Schultz, I. Smith. Measurers
   K. Chambers, T. de Boer, J. Fairlamb, H. Gao, M. Huber, C.-C. Lin, E.
   Magnier, Y. Ramanjooloo, R. Wainscoat, R. Weryk. 1.8-m Ritchey-Chrétien +
   CCD.

Orbital elements:  P12oDgI
   Perihelion 2026 Apr 18.182714 +/- 134 TT =  4:23:06.5 (JD 2461148.682714)
Epoch 2026 Jul 26.0 TT = JDT 2461247.5   Ju: 0.8910   Sa: 0.1611
M   6.460454555 +/- 37              (J2000 ecliptic)             AutoNEOCP
n   0.065377777 +/- 0.0841          Peri.  333.891545 +/- 60
a   6.102614621 +/- 5.23            Node   319.516187 +/- 5.6
e   0.65466169 +/- 0.171            Incl.   16.614674 +/- 5.0
P  15.07558                H 18.08  G  0.15   U 11.1  SR
q 2.107466616 +/- 0.484    Q 10.09776262 +/- 3.5
From 6 observations 2026 July 24-26 (46.5 hr); mean residual 0".11
Residuals in arcseconds: 
260724 F51  .13-  .04+    260724 F51  .12+  .10-    260726 F52  .01-  .16+    
260724 F51  .00   .05+    260726 F52  .04+  .09+    260726 F52  .03-  .24-    

Ephemerides (geocentric):
Date (UTC) HH   RA             Dec           delta  r     elong  mag " sig PA
---- --------  ------------   ------------  ------ ------ -----  --- --------
2026 07 28 22  23 15 41.519   +01 40 36.91  1.4876 2.3170 134.7 21.7 31.3 114
2026 07 28 23  23 15 40.653   +01 40 59.88  1.4875 2.3172 134.7 21.7 32.2 114
2026 07 29 00  23 15 39.784   +01 41 22.84  1.4873 2.3173 134.8 21.7 33.0 114
2026 07 29 01  23 15 38.911   +01 41 45.79  1.4871 2.3175 134.8 21.7 33.9 114
2026 07 29 02  23 15 38.036   +01 42 08.72  1.4870 2.3176 134.8 21.7 34.8 114
2026 07 29 03  23 15 37.159   +01 42 31.63  1.4868 2.3178 134.9 21.7 35.6 114
2026 07 29 04  23 15 36.278   +01 42 54.52  1.4867 2.3180 134.9 21.7 36.5 114
2026 07 29 05  23 15 35.395   +01 43 17.40  1.4865 2.3181 135.0 21.7 37.4 114
2026 07 29 06  23 15 34.509   +01 43 40.26  1.4863 2.3183 135.0 21.7 38.3 114
2026 07 29 07  23 15 33.620   +01 44 03.10  1.4862 2.3184 135.0 21.7 39.2 114
2026 07 29 08  23 15 32.728   +01 44 25.93  1.4860 2.3186 135.1 21.7 40.2 114
2026 07 29 09  23 15 31.834   +01 44 48.74  1.4859 2.3188 135.1 21.7 41.1 114
2026 07 29 10  23 15 30.937   +01 45 11.53  1.4857 2.3189 135.2 21.7 42.1 114
2026 07 29 11  23 15 30.037   +01 45 34.31  1.4855 2.3191 135.2 21.7 43.0 114
2026 07 29 12  23 15 29.134   +01 45 57.07  1.4854 2.3192 135.2 21.7 44.0 114
2026 07 29 13  23 15 28.228   +01 46 19.81  1.4852 2.3194 135.3 21.7 45.0 114
2026 07 29 14  23 15 27.320   +01 46 42.54  1.4851 2.3196 135.3 21.7 46.0 114
2026 07 29 15  23 15 26.408   +01 47 05.24  1.4849 2.3197 135.4 21.7 47.0 114
2026 07 29 16  23 15 25.495   +01 47 27.94  1.4847 2.3199 135.4 21.7 48.0 114
2026 07 29 17  23 15 24.578   +01 47 50.61  1.4846 2.3200 135.4 21.7 49.0 114
2026 07 29 18  23 15 23.658   +01 48 13.27  1.4844 2.3202 135.5 21.7 50.0 114
2026 07 29 19  23 15 22.736   +01 48 35.91  1.4843 2.3204 135.5 21.7 51.1 114
2026 07 29 20  23 15 21.811   +01 48 58.54  1.4841 2.3205 135.6 21.7 52.1 114
2026 07 29 21  23 15 20.883   +01 49 21.15  1.4840 2.3207 135.6 21.7 53.2 114
2026 07 29 22  23 15 19.953   +01 49 43.74  1.4838 2.3208 135.6 21.7 54.2 114
2026 07 29 23  23 15 19.019   +01 50 06.31  1.4836 2.3210 135.7 21.7 55.3 114
2026 07 30 00  23 15 18.083   +01 50 28.87  1.4835 2.3212 135.7 21.7 56.4 114
2026 07 30 01  23 15 17.144   +01 50 51.41  1.4833 2.3213 135.8 21.7 57.5 114
2026 07 30 02  23 15 16.202   +01 51 13.93  1.4832 2.3215 135.8 21.7 58.6 115
2026 07 30 03  23 15 15.258   +01 51 36.44  1.4830 2.3217 135.8 21.7 59.7 115
2026 07 30 04  23 15 14.311   +01 51 58.93  1.4829 2.3218 135.9 21.7 60.9 115
2026 07 30 05  23 15 13.361   +01 52 21.40  1.4827 2.3220 135.9 21.7 62.0 115
2026 07 30 06  23 15 12.408   +01 52 43.86  1.4826 2.3221 136.0 21.7 63.2 115
2026 07 30 07  23 15 11.453   +01 53 06.29  1.4824 2.3223 136.0 21.7 64.3 115
2026 07 30 08  23 15 10.494   +01 53 28.72  1.4823 2.3225 136.0 21.7 65.5 115
2026 07 30 09  23 15 09.533   +01 53 51.12  1.4821 2.3226 136.1 21.7 66.7 115
2026 07 30 10  23 15 08.570   +01 54 13.51  1.4819 2.3228 136.1 21.7 67.9 115
2026 07 30 11  23 15 07.603   +01 54 35.88  1.4818 2.3229 136.2 21.7 69.1 115
2026 07 30 12  23 15 06.634   +01 54 58.23  1.4816 2.3231 136.2 21.7 70.3 115
2026 07 30 13  23 15 05.662   +01 55 20.57  1.4815 2.3233 136.2 21.7 71.5 115
2026 07 30 14  23 15 04.687   +01 55 42.89  1.4813 2.3234 136.3 21.7 72.8 115
2026 07 30 15  23 15 03.710   +01 56 05.19  1.4812 2.3236 136.3 21.7 74.0 115
2026 07 30 16  23 15 02.729   +01 56 27.47  1.4810 2.3238 136.4 21.7 75.3 115
2026 07 30 17  23 15 01.747   +01 56 49.74  1.4809 2.3239 136.4 21.7 76.6 115
2026 07 30 18  23 15 00.761   +01 57 11.99  1.4807 2.3241 136.4 21.7 77.8 115
2026 07 30 19  23 14 59.772   +01 57 34.23  1.4806 2.3242 136.5 21.7 79.1 115
2026 07 30 20  23 14 58.781   +01 57 56.44  1.4804 2.3244 136.5 21.7 80.4 115
2026 07 30 21  23 14 57.787   +01 58 18.64  1.4803 2.3246 136.6 21.7 81.7 115